Miscellaneous Local Product
Issued by NWS Hastings, NE

Home | Current Version | Previous Version | Text Only | Print | Product List | Glossary Off
Versions: 1 2 3 4 5 6 7 8 9 10 11 12 13 14 15 16 17 18 19 20 21 22 23 24 25 26 27 28 29 30 31 32 33 34 35 36 37 38 39 40 41 42 43 44 45 46 47 48 49 50

000
AXUS43 KGID 290802
MISGRI

GID CWA HOURLY WEATHER ROUNDUP
NATIONAL WEATHER SERVICE HASTINGS NE
300 AM CDT FRI APR 29 2016

NOTE: "FAIR" INDICATES FEW OR NO CLOUDS BELOW 12,000 FEET WITH NO
SIGNIFICANT WEATHER AND/OR OBSTRUCTIONS TO VISIBILITY.

...SOUTH CENTRAL NEBRASKA...

CITY           SKY/WX    TMP DP  RH WIND       PRES   REMARKS
GRAND ISLAND   CLOUDY    42  39  89 N5        30.12F
HASTINGS       CLOUDY    43  39  86 NE5       30.11F
KEARNEY        CLOUDY    43  39  87 NE6       30.12F
ORD            CLOUDY    41  38  89 NW5       30.10F
YORK           CLOUDY    43  39  87 N5        30.12S
AURORA         CLOUDY    42  41  95 NE3       30.11F
LEXINGTON      CLOUDY    42  40  89 E7        30.12S
HOLDREGE       CLOUDY    44  41  90 NE5       30.11F
HEBRON         CLOUDY    46  40  80 NE6       30.13R

...NEBRASKA PANHANDLE...

CITY           SKY/WX    TMP DP  RH WIND       PRES   REMARKS
CHADRON        CLOUDY    38  36  92 CALM      30.12R
ALLIANCE       CLOUDY    36  35  96 CALM      30.08F
SCOTTSBLUFF    CLOUDY    35  32  88 NE8       30.10S WCI  29
SIDNEY         CLOUDY    33  32  96 NE6       30.08F FOG     WCI  28

...WESTERN AND NORTH CENTRAL NEBRASKA...

CITY           SKY/WX    TMP DP  RH WIND       PRES   REMARKS
VALENTINE      CLOUDY    39  36  89 NW5       30.12F
AINSWORTH      CLOUDY    39  39  99 N6        30.09F FOG     WCI  35
ONEILL         CLOUDY    41  39  93 CALM      30.12F
BROKEN BOW     CLOUDY    40  37  89 N3        30.10F
IMPERIAL       CLOUDY    42  38  85 E6        30.08F
NORTH PLATTE   CLOUDY    41  38  89 NE6       30.10F
MCCOOK         CLOUDY    44  40  85 NE8       30.08F

...EASTERN NEBRASKA...

CITY           SKY/WX    TMP DP  RH WIND       PRES   REMARKS
NORFOLK        CLOUDY    42  38  85 NW5       30.11F
SO SIOUX CITY  CLOUDY    43  39  86 NE5       30.13F
TEKAMAH        CLOUDY    44  41  89 N7        30.12F
COLUMBUS       CLOUDY    43  36  75 CALM      30.13S
ALBION         CLOUDY    42  38  87 CALM      30.12F
OMAHA EPPLEY   CLOUDY    45  42  89 NW5       30.12S
OFFUTT AFB     CLOUDY    45  42  87 N2        30.12R
MILLARD        CLOUDY    46  40  81 N3        30.12S
LINCOLN        CLOUDY    46  40  79 N5        30.14S
NEBRASKA CITY  CLOUDY    46  40  79 N8        30.12S
BEATRICE       CLOUDY    46  42  84 NE6       30.12S
FALLS CITY     CLOUDY    49  42  77 N5        30.13R

...NORTHERN KANSAS...

CITY           SKY/WX    TMP DP  RH WIND       PRES   REMARKS
GOODLAND       LGT RAIN  40  39  97 E13       30.06F WCI  32
HILL CITY      CLOUDY    47  43  86 NE7       30.09S
NORTON         CLOUDY    45  39  81 NE6       30.09R
PHILLIPSBURG   CLOUDY    46  43  87 CALM      30.10S
SMITH CENTER   CLOUDY    45  41  87 NE9       30.11S
BELOIT         CLOUDY    46  41  81 NE7       30.09F
HAYS           CLOUDY    46  37  71 NE12      30.06R
RUSSELL        CLOUDY    48  44  86 NE14      30.03F
CONCORDIA      CLOUDY    48  41  76 NE10      30.10S
SALINA         LGT RAIN  51  46  83 NE9       30.04F
TOPEKA         LGT RAIN  50  46  86 N8        30.08F



USA.gov is the U.S. government's official web portal to all federal, state and local government web resources and services.